Sanford, FL

7:56 AM EDT on April 24, 2018 (GMT -0400)
Orlando Sanford

Weather History for KSFB - April, 2013

Change the Weather History Date:

Wednesday, April 10, 2013

  Actual Average Record
Temperature  
Mean Temperature 72 °F 70 °F  
Max Temperature 84 °F 82 °F 93 °F (1999)
Min Temperature 60 °F 60 °F 45 °F (1985)
Degree Days  
Heating Degree Days 0 1  
Month to date heating degree days 10  
Since 1 July heating degree days 593  
Cooling Degree Days 7 6  
Month to date cooling degree days 56  
Year to date cooling degree days 260  
Growing Degree Days 22 (Base 50)    
Moisture  
Dew Point 64 °F    
Average Humidity 79    
Maximum Humidity 96    
Minimum Humidity 51    
Precipitation  
Precipitation 0.00 in 0.08 in 1.11 in (1956)
Month to date precipitation 1.01  
Year to date precipitation 10.29  
Snow  
Snow 0.00 in - - ()
Month to date snowfall  
Since 1 July snowfall  
Snow Depth -    
Sea Level Pressure  
Sea Level Pressure 30.07 in    
Wind  
Wind Speed 6 mph (ESE)    
Max Wind Speed 15 mph    
Max Gust Speed -    
Visibility 10 miles    
Events      
T = Trace of Precipitation, MM = Missing Value Source: NWS Daily Summary

Daily Weather History Graph

Daily Weather History Graph

Search for Another Location

Airport or City:

Astronomy

Apr. 10, 2013 Rise Set
Actual Time 7:04 AM EDT 7:48 PM EDT
Civil Twilight 6:40 AM EDT 8:12 PM EDT
Nautical Twilight 6:12 AM EDT 8:40 PM EDT
Astronomical Twilight 5:43 AM EDT 9:09 PM EDT
Moon 7:02 AM EDT (4/10) 8:17 PM EDT (4/10)
Length of Visible Light 13h 31m
Length of Day
12h 43m
New Moon, 0% of the Moon is Illuminated
Apr 10
New Moon
Apr 18
First Quarter
Apr 25
Full
May 2
Last Quarter
May 9
New

Hourly Weather History & Observations

Time (EDT) Temp. Heat Index Dew Point Humidity Pressure Visibility Wind Dir Wind Speed Gust Speed Precip Events Conditions
12:53 AM 63.0 °F - 60.1 °F 90% 30.14 in 10.0 mi East 6.9 mph - N/A   Clear
1:53 AM 63.0 °F - 60.1 °F 90% 30.13 in 10.0 mi ENE 4.6 mph - N/A   Clear
2:53 AM 61.0 °F - 59.0 °F 93% 30.10 in 10.0 mi Calm Calm - N/A   Clear
3:53 AM 62.1 °F - 60.1 °F 93% 30.09 in 10.0 mi Calm Calm - N/A   Clear
4:53 AM 62.1 °F - 60.1 °F 93% 30.09 in 10.0 mi Calm Calm - N/A   Clear
5:53 AM 60.1 °F - 59.0 °F 96% 30.09 in 10.0 mi Calm Calm - N/A   Clear
6:53 AM 61.0 °F - 59.0 °F 93% 30.09 in 10.0 mi NNE 3.5 mph - N/A   Scattered Clouds
7:53 AM 64.0 °F - 62.1 °F 93% 30.10 in 10.0 mi Calm Calm - N/A   Partly Cloudy
8:53 AM 70.0 °F - 66.0 °F 87% 30.11 in 10.0 mi Calm Calm - N/A   Clear
9:53 AM 75.0 °F - 64.9 °F 71% 30.12 in 10.0 mi SE 9.2 mph - N/A   Clear
10:53 AM 75.9 °F - 64.0 °F 67% 30.12 in 10.0 mi SSE 9.2 mph - N/A   Mostly Cloudy
11:53 AM 80.1 °F 81.2 °F 62.1 °F 54% 30.11 in 10.0 mi SE 6.9 mph - N/A   Partly Cloudy
1:53 PM 81.0 °F 81.9 °F 62.1 °F 52% 30.08 in 10.0 mi Variable 5.8 mph - N/A   Overcast
3:53 PM 82.0 °F 83.1 °F 63.0 °F 52% 30.05 in 10.0 mi SE 10.4 mph - N/A   Mostly Cloudy
4:53 PM 84.0 °F 85.4 °F 64.0 °F 51% 30.02 in 10.0 mi SSE 12.7 mph - N/A   Overcast
5:53 PM 82.9 °F 84.4 °F 64.0 °F 53% 30.02 in 10.0 mi SE 13.8 mph - N/A   Scattered Clouds
6:53 PM 79.0 °F - 64.9 °F 62% 30.02 in 10.0 mi ESE 15.0 mph - N/A   Partly Cloudy
7:53 PM 75.9 °F - 66.9 °F 74% 30.01 in 10.0 mi ESE 10.4 mph - N/A   Clear
8:53 PM 73.9 °F - 68.0 °F 82% 30.03 in 10.0 mi ESE 8.1 mph - N/A   Partly Cloudy
9:34 PM 73.4 °F - 69.8 °F 88% 30.04 in 10.0 mi SE 9.2 mph - N/A   Mostly Cloudy
9:53 PM 73.0 °F - 69.1 °F 87% 30.04 in 10.0 mi SE 9.2 mph - N/A   Mostly Cloudy
10:08 PM 73.4 °F - 69.8 °F 88% 30.04 in 10.0 mi SE 8.1 mph - N/A   Scattered Clouds
10:53 PM 71.1 °F - 69.1 °F 93% 30.03 in 10.0 mi ESE 8.1 mph - N/A   Partly Cloudy
11:53 PM 71.1 °F - 69.1 °F 93% 30.02 in 10.0 mi SSE 9.2 mph - N/A   Clear